Location: Unspecified
(48.5824°N, 0.0000°E)
Time: 03:10:41
(UTC+00:00)

Explorer 7 - Visible Passes

Search period start: 04 April 2026 00:00
Search period end: 14 April 2026 00:00
Orbit: 429 x 539 km, 50.2° (Epoch: 29 March)

Date Brightness Start Highest point End Pass type
(mag) Time Alt. Az. Time Alt. Az. Time Alt. Az.
5 Apr 8.3 19:50:46 10° S 19:53:13 17° SE 19:53:13 17° SE visible
5 Apr 9.4 21:27:23 10° WSW 21:27:35 11° WSW 21:27:35 11° WSW visible
6 Apr 8.3 19:23:47 10° S 19:26:24 17° SE 19:28:30 12° ESE visible
6 Apr 7.7 21:00:17 10° SW 21:02:51 36° SW 21:02:51 36° SW visible
7 Apr 6.7 20:33:09 10° SW 20:37:07 58° SSE 20:37:45 51° ESE visible
7 Apr 9.4 22:11:33 10° W 22:12:04 13° W 22:12:04 13° W visible
8 Apr 6.8 20:06:00 10° SW 20:09:57 56° SSE 20:12:20 22° E visible
8 Apr 8.2 21:44:21 10° W 21:46:39 32° W 21:46:39 32° W visible
9 Apr 6.9 19:38:49 10° SW 19:42:46 53° SSE 19:46:39 10° ENE visible
9 Apr 6.9 21:17:07 10° W 21:20:59 70° NNW 21:20:59 70° NNW visible
10 Apr 7.0 19:11:36 10° SW 19:15:33 51° SSE 19:19:25 10° ENE visible
10 Apr 6.8 20:49:52 10° W 20:53:54 72° N 20:55:08 42° ENE visible
10 Apr 9.3 22:28:28 10° WNW 22:29:24 16° WNW 22:29:24 16° WNW visible
11 Apr 6.8 20:22:35 10° W 20:26:37 74° N 20:29:08 22° ENE visible
11 Apr 8.3 22:01:12 10° WNW 22:03:23 31° WNW 22:03:23 31° WNW visible
12 Apr 6.9 19:55:16 10° W 19:59:20 75° N 20:03:01 12° ENE visible
12 Apr 7.1 21:33:53 10° WNW 21:37:17 60° NW 21:37:17 60° NW visible
13 Apr 6.9 19:27:56 10° W 19:32:01 77° N 19:36:00 10° ENE visible
13 Apr 6.7 21:06:33 10° WNW 21:10:35 75° N 21:11:05 63° ENE visible
13 Apr 9.6 22:45:04 10° WNW 22:45:20 12° W 22:45:20 12° W visible
